Printer-friendly version

IAU Minor Planet Center

Minor Planet Center

MPEC 2006-E12 : 2006 EE

The following Minor Planet Electronic Circular may be linked-to from your own Web pages, but must not otherwise be redistributed electronically.


Read MPEC 2006-E11 Read MPEC 2006-E13


M.P.E.C. 2006-E12                                Issued 2006 Mar. 4, 01:49 UT

     The Minor Planet Electronic Circulars contain information on unusual
         minor planets and routine data on comets.  They are published
   on behalf of Commission 20 of the International Astronomical Union by the
          Minor Planet Center, Smithsonian Astrophysical Observatory,
                          Cambridge, MA 02138, U.S.A.

                  Supported in part by the Brinson Foundation
                  Supported in part by the TABASGO Foundation
             Prepared using the Tamkin Foundation Computer Network

                              MPC@CFA.HARVARD.EDU
          URL http://cfa-www.harvard.edu/iau/mpc.html  ISSN 1523-6714

                                    2006 EE

Observations:
     K06E00E* C2006 03 03.33946 12 33 17.64 +13 09 45.3          19.1 V EE012703
     K06E00E  C2006 03 03.34731 12 33 18.97 +13 08 58.8          19.4 V EE012703
     K06E00E  C2006 03 03.35477 12 33 20.23 +13 08 14.6          19.2 V EE012703
     K06E00E  C2006 03 03.42807 12 33 32.58 +13 00 54.5          19.1 V EE012703
     K06E00E  C2006 03 03.43098 12 33 33.04 +13 00 36.6          19.0 V EE012703
     K06E00E  C2006 03 03.43392 12 33 33.51 +13 00 19.3          19.2 V EE012703
     K06E00E  C2006 03 03.43685 12 33 34.05 +13 00 02.1          19.4 V EE012703
     K06E00E  C2006 03 03.99725 12 35 30.37 +12 02 36.3          18.8 R EE012176
     K06E00E  C2006 03 03.99811 12 35 30.53 +12 02 31.0          19.0 R EE012176
     K06E00E  C2006 03 03.99898 12 35 30.67 +12 02 25.4          19.0 R EE012176
     K06E00E  C2006 03 03.99984 12 35 30.81 +12 02 20.1          18.9 R EE012176
     K06E00E  C2006 03 04.00070 12 35 30.96 +12 02 14.9          18.9 R EE012176
     K06E00E  C2006 03 04.04704 12 35 39.26 +11 57 10.0                 EE012J95
     K06E00E  C2006 03 04.05094 12 35 39.96 +11 56 45.9                 EE012J95
     K06E00E  C2006 03 04.05488 12 35 40.66 +11 56 21.5          19.4 R EE012J95

Observer details:
176 Observatori Astronomic de Consell.  Observers A. Lopez, R. Pacheco.
    0.41-m f/4 reflector + CCD.
703 Catalina Sky Survey.  Observers E. J. Christensen, A. R. Gibbs.  Measurers
    E. C. Beshore, E. J. Christensen, G. J. Garradd, A. R. Gibbs, A. D. Grauer,
    R. E. Hill, R. A. Kowalski, S. M. Larson, R. H. McNaught.  0.68-m Schmidt
    + CCD.
J95 Great Shefford.  Observer P. Birtwhistle.  0.40-m f/6.0 Schmidt-Cassegrain
    + CCD.

Orbital elements:
2006 EE                                                  Earth MOID = 0.0615 AU
Epoch 2006 Mar. 6.0 TT = JDT 2453800.5                  MPC
M 349.30531              (2000.0)            P               Q
n   0.43975130     Peri.  199.05793     -0.97512312     +0.22102217
a   1.7126343      Node   353.63954     -0.17843766     -0.82780698
e   0.3878959      Incl.    8.75138     -0.13151010     -0.51564019
P   2.24           H   23.0           G   0.15           U   7
Residuals in seconds of arc
060303 703  0.2-  0.1-    060303 703  0.4-  0.1-    060303 176  0.1-  0.1+
060303 703  0.1-  0.1+    060303 703  0.3+  0.4+    060304 176  0.2-  0.3+
060303 703  0.0   0.3+    060303 176  0.1+  0.2+    060304 J95  0.1+  0.4-
060303 703  0.5+  0.2-    060303 176  0.2+  0.3+    060304 J95  0.0   0.1-
060303 703  0.0   0.6-    060303 176  0.0   0.1+    060304 J95  0.1-  0.2+

Ephemeris:
2006 EE                  a,e,i = 1.71, 0.39, 9                   q = 1.0486
Date    TT    R. A. (2000) Decl.     Delta      r     Elong.  Phase     V
2006 02 24    12 11.42   +22 36.7    0.131    1.107   152.0    24.8    19.9
2006 03 06    12 42.48   +08 20.2    0.0941   1.079   155.8    22.1    19.1
2006 03 16    13 26.16   -17 30.7    0.0753   1.059   147.9    30.0    18.8
2006 03 26    14 28.68   -45 34.4    0.0814   1.050   128.0    48.5    19.5
2006 04 05    15 47.86   -61 32.8    0.105    1.050   115.9    59.0    20.3
2006 04 15    17 03.91   -67 45.7    0.135    1.061   112.3    61.0    21.0
2006 04 25    17 55.15   -69 36.7    0.165    1.082   113.5    58.5    21.4
2006 05 05    18 17.38   -69 43.4    0.194    1.112   117.6    53.5    21.6
2006 05 15    18 17.48   -68 51.7    0.223    1.149   123.4    47.3    21.8
2006 05 25    18 03.92   -67 03.8    0.253    1.192   130.2    40.5    22.0

Timothy B. Spahr             (C) Copyright 2006 MPC           M.P.E.C. 2006-E12

Read MPEC 2006-E11 Read MPEC 2006-E13


Our Web policy. Index to the CBAT/MPC/ICQ pages.


Valid HTML 4.01!